Weather History for K9V9 - October, 2013

Change the Weather History Date:

Wednesday, October 2, 2013

  Actual Average Record
Temperature  
Mean Temperature 65 °F -  
Max Temperature 80 °F 66 °F 97 °F (1997)
Min Temperature 50 °F 40 °F 21 °F (1999)
Growing Degree Days 15 (Base 50)    
Moisture  
Dew Point 44 °F    
Average Humidity 52    
Maximum Humidity 80    
Minimum Humidity 33    
Precipitation  
Precipitation 0.00 in - - ()
Sea Level Pressure  
Sea Level Pressure 29.87 in    
Wind  
Wind Speed 10 mph (WSW)    
Max Wind Speed 15 mph    
Max Gust Speed 21 mph    
Averages and records for this station are not official NWS values.
T = Trace of Precipitation, MM = Missing Value Source: NWS Daily Summary

Daily Weather History Graph

Daily Weather History Graph

Search for Another Location

Airport or City:

Trip Planner

Search our weather history database for the weather conditions in past years. The results will help you decide how hot, cold, wet, or windy it might be!

Date:

Astronomy

Oct. 02, 2013 Rise Set
Actual Time 7:36 AM CDT 7:15 PM CDT
Civil Twilight 7:07 AM CDT 7:44 PM CDT
Nautical Twilight 6:34 AM CDT 8:17 PM CDT
Astronomical Twilight 6:00 AM CDT 8:51 PM CDT
Moon 5:07 AM CDT (10/2) 5:55 PM CDT (10/2)
Length of Visible Light 12h 36m
Length of Day
11h 39m
Waning Crescent, 6% of the Moon is Illuminated
Oct 2
Waning Crescent
Oct 4
New
Oct 11
First Quarter
Oct 18
Full
Oct 26
Last Quarter

Hourly Weather History & Observations

Time (CDT) Temp. Dew Point Humidity Pressure Visibility Wind Dir Wind Speed Gust Speed Precip Events Conditions
12:52 AM 51.1 °F 39.9 °F 66% 29.94 in - South 8.1 mph - N/A   Unknown
1:52 AM 50.0 °F 39.9 °F 68% 29.94 in - South 6.9 mph - N/A   Unknown
2:52 AM 52.0 °F 41.0 °F 66% 29.93 in - South 6.9 mph - N/A   Unknown
3:52 AM 52.0 °F 39.9 °F 63% 29.91 in - South 11.5 mph - N/A   Unknown
4:52 AM 51.1 °F 39.0 °F 63% 29.90 in - South 10.4 mph - N/A   Unknown
5:52 AM 52.0 °F 37.9 °F 59% 29.88 in - South 10.4 mph - N/A   Unknown
6:52 AM 51.1 °F 37.9 °F 61% 29.88 in - South 9.2 mph - N/A   Unknown
7:52 AM 53.1 °F 37.0 °F 55% 29.87 in - South 12.7 mph - N/A   Unknown
8:52 AM 57.0 °F 37.9 °F 49% 29.86 in - South 13.8 mph - N/A   Unknown
9:52 AM 63.0 °F 41.0 °F 45% 29.87 in - South 8.1 mph - N/A   Unknown
10:52 AM 69.1 °F 48.0 °F 47% 29.84 in - SW 11.5 mph - N/A   Unknown
11:52 AM 72.0 °F 50.0 °F 46% 29.83 in - West 10.4 mph - N/A   Unknown
12:52 PM 77.0 °F 51.1 °F 40% 29.82 in - West 8.1 mph - N/A   Unknown
1:52 PM 79.0 °F 51.1 °F 38% 29.81 in - West 11.5 mph 17.3 mph N/A   Unknown
2:52 PM 80.1 °F 48.9 °F 34% 29.80 in - West 13.8 mph 20.7 mph N/A   Unknown
3:52 PM 78.1 °F 46.9 °F 33% 29.81 in - NW 11.5 mph - N/A   Unknown
4:52 PM 75.9 °F 45.0 °F 33% 29.82 in - NW 12.7 mph - N/A   Unknown
5:52 PM 75.0 °F 46.0 °F 36% 29.83 in - North 15.0 mph 20.7 mph N/A   Unknown
6:52 PM 70.0 °F 44.1 °F 39% 29.83 in - NNW 9.2 mph - N/A   Unknown
7:52 PM 66.0 °F 45.0 °F 47% 29.86 in - North 10.4 mph - N/A   Unknown
8:52 PM 62.1 °F 43.0 °F 50% 29.88 in - NNE 13.8 mph - N/A   Unknown
9:52 PM 57.9 °F 46.0 °F 65% 29.89 in - North 15.0 mph 19.6 mph N/A   Unknown
10:52 PM 54.0 °F 46.0 °F 75% 29.91 in - NNE 12.7 mph - N/A   Unknown
11:52 PM 52.0 °F 46.0 °F 80% 29.90 in - NNE 9.2 mph - N/A   Unknown